When you browse on this site, cookies collect data to enhance your experience and personalize the content and advertising you see.
Visit our Privacy Policy to learn more. By continuing to use the site, you agree to this use of cookies and data.
  • Em Portugal
  • Lista de países
  • Para 7 dias
  • Temperatura da água
  • Mapa do tempo
  • Widgets de tempo
  • user-avatar
    Iniciar Sessão

    Previsão horária em Veleshino 1

    Hoje, 28 Janeiro, Terça-feira

    Tempo Temperatura Precipitação Vento Pressão Humidade
    00:00 0°C° 0 mm 1 m/s 739 mmHg 82%
    01:00 -2°C° 0 mm 2 m/s 739 mmHg 82%
    02:00 -2°C° 0 mm 2 m/s 738 mmHg 82%
    03:00 -2°C° 0 mm 2 m/s 738 mmHg 83%
    04:00 -2°C° 0 mm 2 m/s 738 mmHg 84%
    05:00 -1°C° 0 mm 2 m/s 738 mmHg 85%
    06:00 -1°C° 0 mm 2 m/s 737 mmHg 85%
    07:00 -1°C° 0 mm 2 m/s 737 mmHg 84%
    08:00 -1°C° 0 mm 2 m/s 737 mmHg 84%
    09:00 0°C° 0 mm 3 m/s 737 mmHg 83%
    10:00 0°C° 0 mm 3 m/s 737 mmHg 81%
    11:00 0°C° 0 mm 3 m/s 736 mmHg 80%
    12:00 +1°C° 0 mm 3 m/s 736 mmHg 80%
    13:00 +1°C° 0 mm 3 m/s 736 mmHg 79%
    14:00 +2°C° 0 mm 3 m/s 735 mmHg 79%
    15:00 +1°C° 0 mm 3 m/s 735 mmHg 82%
    16:00 +1°C° 0 mm 3 m/s 734 mmHg 85%
    17:00 -1°C° 0 mm 4 m/s 734 mmHg 88%
    18:00 -1°C° 0 mm 4 m/s 734 mmHg 89%
    19:00 -1°C° 0 mm 4 m/s 733 mmHg 90%
    20:00 -1°C° 0 mm 4 m/s 733 mmHg 91%
    21:00 -1°C° 0 mm 4 m/s 733 mmHg 92%
    22:00 -1°C° 0 mm 4 m/s 732 mmHg 93%
    23:00 -1°C° 0 mm 4 m/s 732 mmHg 94%

    Amanhã, 29 Janeiro, Quarta-feira

    Tempo Temperatura Precipitação Vento Pressão Humidade
    00:00 -1°C° 0.1 mm 4 m/s 732 mmHg 94%
    01:00 -1°C° 0.1 mm 4 m/s 731 mmHg 95%
    02:00 -1°C° 0.1 mm 4 m/s 731 mmHg 96%
    03:00 -1°C° 0 mm 4 m/s 730 mmHg 96%
    04:00 -1°C° 0 mm 4 m/s 729 mmHg 95%
    05:00 -2°C° 0 mm 4 m/s 729 mmHg 95%
    06:00 -2°C° 0.1 mm 4 m/s 728 mmHg 96%
    07:00 -2°C° 0.1 mm 4 m/s 728 mmHg 96%
    08:00 -2°C° 0.1 mm 4 m/s 728 mmHg 96%
    09:00 -2°C° 0.5 mm 4 m/s 728 mmHg 97%
    10:00 -1°C° 0.5 mm 4 m/s 727 mmHg 97%
    11:00 0°C° 0.5 mm 3 m/s 727 mmHg 98%
    12:00 0°C° 1 mm 3 m/s 727 mmHg 98%
    13:00 -1°C° 1 mm 2 m/s 727 mmHg 98%
    14:00 -1°C° 1 mm 2 m/s 727 mmHg 98%
    15:00 -1°C° 1.1 mm 2 m/s 727 mmHg 98%
    16:00 -1°C° 1.1 mm 3 m/s 727 mmHg 98%
    17:00 -2°C° 1.1 mm 4 m/s 726 mmHg 98%
    18:00 -2°C° 0.5 mm 4 m/s 726 mmHg 96%
    19:00 -2°C° 0.5 mm 5 m/s 727 mmHg 93%
    20:00 -2°C° 0.5 mm 5 m/s 727 mmHg 91%
    21:00 -2°C° 0 mm 4 m/s 727 mmHg 90%
    22:00 -3°C° 0 mm 4 m/s 727 mmHg 89%
    23:00 -3°C° 0 mm 4 m/s 727 mmHg 89%

    Depois de amanhã, 30 Janeiro, Quinta-feira

    Tempo Temperatura Precipitação Vento Pressão Humidade
    00:00 -3°C° 0 mm 4 m/s 727 mmHg 89%
    01:00 -3°C° 0 mm 4 m/s 727 mmHg 90%
    02:00 -4°C° 0 mm 4 m/s 727 mmHg 91%
    03:00 -4°C° 0 mm 4 m/s 727 mmHg 91%
    04:00 -5°C° 0 mm 5 m/s 727 mmHg 91%
    05:00 -5°C° 0 mm 5 m/s 727 mmHg 91%
    06:00 -4°C° 0.1 mm 6 m/s 727 mmHg 90%
    07:00 -4°C° 0.1 mm 6 m/s 728 mmHg 89%
    08:00 -4°C° 0.1 mm 7 m/s 728 mmHg 89%
    09:00 -5°C° 0.2 mm 8 m/s 728 mmHg 89%
    10:00 -5°C° 0.2 mm 8 m/s 728 mmHg 90%
    11:00 -4°C° 0.2 mm 9 m/s 728 mmHg 90%
    12:00 -4°C° 0 mm 9 m/s 729 mmHg 89%
    13:00 -2°C° 0 mm 8 m/s 729 mmHg 88%
    14:00 -2°C° 0 mm 8 m/s 729 mmHg 86%
    15:00 -2°C° 0 mm 8 m/s 730 mmHg 86%
    16:00 -2°C° 0 mm 7 m/s 730 mmHg 86%
    17:00 -2°C° 0 mm 7 m/s 730 mmHg 85%
    18:00 -2°C° 0 mm 6 m/s 731 mmHg 86%
    19:00 -3°C° 0 mm 6 m/s 731 mmHg 88%
    20:00 -3°C° 0 mm 6 m/s 732 mmHg 89%
    21:00 -3°C° 0 mm 6 m/s 732 mmHg 90%
    22:00 -2°C° 0 mm 5 m/s 732 mmHg 91%
    23:00 -2°C° 0 mm 5 m/s 732 mmHg 92%

    31 Janeiro, Sexta-feira

    Tempo Temperatura Precipitação Vento Pressão Humidade
    00:00 -4°C° 0 mm 5 m/s 732 mmHg 92%
    01:00 -3°C° 0 mm 4 m/s 732 mmHg 93%
    02:00 -4°C° 0 mm 3 m/s 732 mmHg 93%
    03:00 -4°C° 0.1 mm 3 m/s 732 mmHg 94%
    04:00 -3°C° 0.1 mm 4 m/s 731 mmHg 96%
    05:00 -2°C° 0.1 mm 4 m/s 731 mmHg 98%
    06:00 -1°C° 0.3 mm 4 m/s 731 mmHg 98%
    07:00 -1°C° 0.3 mm 4 m/s 730 mmHg 98%
    08:00 0°C° 0.3 mm 4 m/s 730 mmHg 98%
    09:00 0°C° 0.3 mm 4 m/s 730 mmHg 98%
    10:00 0°C° 0.3 mm 5 m/s 729 mmHg 98%
    11:00 0°C° 0.3 mm 5 m/s 729 mmHg 98%
    12:00 0°C° 0.1 mm 4 m/s 729 mmHg 98%
    13:00 0°C° 0.1 mm 4 m/s 729 mmHg 98%
    14:00 0°C° 0.1 mm 4 m/s 728 mmHg 99%
    15:00 0°C° 0.2 mm 4 m/s 728 mmHg 98%
    16:00 -1°C° 0.2 mm 4 m/s 728 mmHg 98%
    17:00 -1°C° 0.2 mm 4 m/s 728 mmHg 98%
    18:00 0°C° 0.1 mm 3 m/s 728 mmHg 98%
    19:00 0°C° 0.1 mm 3 m/s 728 mmHg 98%
    20:00 0°C° 0.1 mm 3 m/s 728 mmHg 98%
    21:00 +1°C° 0.1 mm 2 m/s 728 mmHg 98%
    22:00 +1°C° 0.1 mm 2 m/s 729 mmHg 98%
    23:00 +1°C° 0.1 mm 2 m/s 729 mmHg 98%

    1 Fevereiro, Sábado

    Tempo Temperatura Precipitação Vento Pressão Humidade
    00:00 +1°C° 0.1 mm 2 m/s 730 mmHg 97%
    01:00 +1°C° 0.1 mm 3 m/s 730 mmHg 96%
    02:00 +1°C° 0.1 mm 3 m/s 731 mmHg 95%
    03:00 +1°C° 0 mm 3 m/s 731 mmHg 95%
    04:00 0°C° 0 mm 3 m/s 731 mmHg 95%
    05:00 -1°C° 0 mm 4 m/s 731 mmHg 95%
    06:00 -1°C° 0 mm 4 m/s 732 mmHg 95%
    07:00 0°C° 0 mm 4 m/s 732 mmHg 95%
    08:00 0°C° 0 mm 4 m/s 732 mmHg 95%
    09:00 0°C° 0 mm 4 m/s 733 mmHg 94%
    10:00 0°C° 0 mm 4 m/s 733 mmHg 93%
    11:00 0°C° 0 mm 5 m/s 733 mmHg 91%
    12:00 +1°C° 0 mm 5 m/s 733 mmHg 89%
    13:00 +1°C° 0 mm 4 m/s 733 mmHg 87%
    14:00 +3°C° 0 mm 4 m/s 733 mmHg 85%
    15:00 +1°C° 0.2 mm 4 m/s 733 mmHg 87%
    16:00 +1°C° 0.2 mm 4 m/s 733 mmHg 89%
    17:00 +1°C° 0.2 mm 4 m/s 732 mmHg 91%
    18:00 +1°C° 0.3 mm 4 m/s 732 mmHg 93%
    19:00 +3°C° 0.3 mm 4 m/s 732 mmHg 95%
    20:00 +3°C° 0.3 mm 4 m/s 732 mmHg 97%
    21:00 +3°C° 0.3 mm 4 m/s 731 mmHg 97%
    22:00 +4°C° 0.3 mm 4 m/s 731 mmHg 97%
    23:00 +4°C° 0.3 mm 4 m/s 731 mmHg 98%

    2 Fevereiro, Domingo

    Tempo Temperatura Precipitação Vento Pressão Humidade
    00:00 +4°C° 0.1 mm 4 m/s 730 mmHg 98%
    01:00 +4°C° 0.1 mm 4 m/s 730 mmHg 98%
    02:00 +4°C° 0.1 mm 4 m/s 730 mmHg 98%
    03:00 +4°C° 0.1 mm 4 m/s 730 mmHg 98%
    04:00 +4°C° 0.1 mm 3 m/s 730 mmHg 97%
    05:00 +4°C° 0.1 mm 3 m/s 729 mmHg 97%
    06:00 +4°C° 0.3 mm 4 m/s 730 mmHg 96%
    07:00 +5°C° 0.3 mm 4 m/s 730 mmHg 95%
    08:00 +5°C° 0.3 mm 4 m/s 730 mmHg 94%
    09:00 +5°C° 0 mm 5 m/s 731 mmHg 89%
    10:00 +4°C° 0 mm 6 m/s 732 mmHg 84%
    11:00 +4°C° 0 mm 6 m/s 732 mmHg 79%
    12:00 +3°C° 0 mm 7 m/s 733 mmHg 76%
    13:00 +3°C° 0 mm 7 m/s 733 mmHg 74%
    14:00 +3°C° 0 mm 7 m/s 734 mmHg 72%
    15:00 +2°C° 0 mm 6 m/s 734 mmHg 75%
    16:00 +1°C° 0 mm 5 m/s 734 mmHg 77%
    17:00 +1°C° 0 mm 4 m/s 734 mmHg 80%
    18:00 0°C° 0 mm 4 m/s 734 mmHg 81%
    19:00 0°C° 0 mm 5 m/s 734 mmHg 82%
    20:00 0°C° 0 mm 5 m/s 734 mmHg 83%
    21:00 0°C° 0 mm 5 m/s 734 mmHg 84%
    22:00 0°C° 0 mm 5 m/s 733 mmHg 84%
    23:00 0°C° 0 mm 5 m/s 733 mmHg 85%
    Mostrar mais